| time (UTC) | temp F | wind direction | speed MPH | gust MPH | rain 1hr in | rain 24hr in | rain mn in | humidity % | barometer mb |
| 20260901203521 | 98 | 197 | 5.0 | 5.0 | 0.00 | 0.02 | 0.02 | 62 | 1012.5 |
| 20260901203016 | 98 | 196 | 3.0 | 6.0 | 0.00 | 0.02 | 0.02 | 63 | 1012.6 |
| 20260901202511 | 97 | 185 | 3.0 | 7.0 | 0.00 | 0.02 | 0.02 | 61 | 1012.8 |
| 20260901202007 | 98 | 194 | 1.0 | 6.0 | 0.00 | 0.02 | 0.02 | 60 | 1012.9 |
| 20260901201502 | 98 | 216 | 2.0 | 4.0 | 0.00 | 0.02 | 0.02 | 61 | 1012.7 |
| 20260901200956 | 97 | 190 | 3.0 | 4.0 | 0.00 | 0.02 | 0.02 | 63 | 1012.7 |
| 20260901200451 | 96 | 190 | 3.0 | 5.0 | 0.00 | 0.02 | 0.02 | 63 | 1012.8 |
| 20260901195950 | 97 | 270 | 0.0 | 6.0 | 0.00 | 0.02 | 0.02 | 64 | 1012.8 |
| 20260901195449 | 97 | 196 | 2.0 | 5.0 | 0.00 | 0.02 | 0.02 | 63 | 1012.8 |
| 20260901194943 | 96 | 188 | 2.0 | 6.0 | 0.00 | 0.02 | 0.02 | 65 | 1012.9 |
| 20260901194438 | 97 | 209 | 2.0 | 6.0 | 0.00 | 0.02 | 0.02 | 65 | 1012.8 |
| 20260901193934 | 96 | 337 | 0.0 | 6.0 | 0.00 | 0.02 | 0.02 | 64 | 1013.1 |
| 20260901193433 | 95 | 200 | 4.0 | 7.0 | 0.00 | 0.02 | 0.02 | 64 | 1013.0 |
| 20260901192932 | 96 | 225 | 2.0 | 5.0 | 0.00 | 0.02 | 0.02 | 66 | 1013.1 |
| 20260901192423 | 96 | 195 | 5.0 | 5.0 | 0.00 | 0.02 | 0.02 | 64 | 1013.0 |
| 20260901191919 | 95 | 254 | 1.0 | 8.0 | 0.00 | 0.02 | 0.02 | 66 | 1013.0 |
| 20260901191415 | 96 | 251 | 0.0 | 5.0 | 0.00 | 0.02 | 0.02 | 67 | 1013.3 |
| 20260901190910 | 96 | 197 | 3.0 | 7.0 | 0.00 | 0.02 | 0.02 | 65 | 1013.1 |
| 20260901190405 | 95 | 195 | 4.0 | 5.0 | 0.00 | 0.02 | 0.02 | 67 | 1013.2 |
| 20260901185903 | 96 | 189 | 4.0 | 4.0 | 0.00 | 0.02 | 0.02 | 68 | 1013.3 |
| 20260901185402 | 95 | 188 | 3.0 | 7.0 | 0.00 | 0.02 | 0.02 | 68 | 1013.3 |
| 20260901184857 | 95 | 345 | 0.0 | 3.0 | 0.00 | 0.02 | 0.02 | 67 | 1013.4 |
| 20260901184353 | 94 | 194 | 1.0 | 6.0 | 0.00 | 0.02 | 0.02 | 67 | 1013.2 |
| 20260901183848 | 94 | 194 | 5.0 | 8.0 | 0.00 | 0.02 | 0.02 | 68 | 1013.1 |
| 20260901183347 | 94 | 213 | 3.0 | 6.0 | 0.00 | 0.02 | 0.02 | 68 | 1013.3 |
| 20260901182844 | 94 | 191 | 3.0 | 5.0 | 0.00 | 0.02 | 0.02 | 68 | 1013.4 |
| 20260901182344 | 94 | 197 | 3.0 | 7.0 | 0.00 | 0.02 | 0.02 | 68 | 1013.4 |
| 20260901181839 | 94 | 294 | 1.0 | 4.0 | 0.00 | 0.02 | 0.02 | 69 | 1013.5 |
| 20260901181333 | 93 | 192 | 0.0 | 5.0 | 0.00 | 0.02 | 0.02 | 70 | 1013.4 |
| 20260901180832 | 93 | 201 | 5.0 | 5.0 | 0.00 | 0.02 | 0.02 | 70 | 1013.2 |
| 20260901180332 | 93 | 197 | 3.0 | 5.0 | 0.00 | 0.02 | 0.02 | 71 | 1013.6 |
| 20260901175830 | 93 | 209 | 2.0 | 7.0 | 0.00 | 0.02 | 0.02 | 72 | 1013.3 |
| 20260901175325 | 92 | 206 | 0.0 | 6.0 | 0.00 | 0.02 | 0.02 | 73 | 1013.5 |
| 20260901174820 | 92 | 0 | 0.0 | 3.0 | 0.00 | 0.02 | 0.02 | 72 | 1013.3 |
| 20260901174316 | 91 | 184 | 0.0 | 6.0 | 0.00 | 0.02 | 0.02 | 73 | 1013.4 |
| 20260901173811 | 91 | 0 | 0.0 | 4.0 | 0.00 | 0.02 | 0.02 | 74 | 1013.4 |
| 20260901173306 | 91 | 190 | 3.0 | 6.0 | 0.00 | 0.02 | 0.02 | 73 | 1013.5 |
| 20260901172803 | 90 | 209 | 0.0 | 6.0 | 0.00 | 0.02 | 0.02 | 75 | 1013.6 |
| 20260901172304 | 90 | 187 | 5.0 | 7.0 | 0.00 | 0.02 | 0.02 | 76 | 1013.7 |
| 20260901171800 | 90 | 198 | 2.0 | 5.0 | 0.00 | 0.02 | 0.02 | 75 | 1013.6 |
| 20260901171259 | 90 | 194 | 3.0 | 5.0 | 0.00 | 0.02 | 0.02 | 75 | 1013.7 |
| 20260901170758 | 89 | 120 | 1.0 | 6.0 | 0.00 | 0.02 | 0.02 | 74 | 1014.1 |
| 20260901170253 | 89 | 202 | 3.0 | 4.0 | 0.00 | 0.02 | 0.02 | 76 | 1013.9 |
| 20260901165751 | 89 | 196 | 3.0 | 7.0 | 0.00 | 0.02 | 0.02 | 77 | 1013.8 |
| 20260901165246 | 89 | 203 | 1.0 | 5.0 | 0.00 | 0.02 | 0.02 | 76 | 1013.7 |
| 20260901164743 | 88 | 192 | 0.0 | 5.0 | 0.00 | 0.02 | 0.02 | 76 | 1013.9 |
| 20260901164238 | 88 | 194 | 1.0 | 5.0 | 0.00 | 0.02 | 0.02 | 76 | 1014.0 |
| 20260901163733 | 87 | 196 | 4.0 | 7.0 | 0.00 | 0.02 | 0.02 | 77 | 1014.0 |
| 20260901163232 | 87 | 198 | 0.0 | 4.0 | 0.00 | 0.02 | 0.02 | 77 | 1013.9 |
| 20260901162728 | 87 | 195 | 6.0 | 6.0 | 0.00 | 0.02 | 0.02 | 76 | 1014.0 |
| 20260901162227 | 87 | 202 | 3.0 | 5.0 | 0.00 | 0.02 | 0.02 | 76 | 1014.1 |
| 20260901161726 | 87 | 209 | 0.0 | 3.0 | 0.00 | 0.02 | 0.02 | 79 | 1014.1 |
| 20260901161221 | 86 | 196 | 0.0 | 5.0 | 0.00 | 0.02 | 0.02 | 77 | 1014.3 |
| 20260901160717 | 87 | 198 | 4.0 | 5.0 | 0.00 | 0.02 | 0.02 | 78 | 1013.9 |
| 20260901160212 | 86 | 204 | 2.0 | 4.0 | 0.00 | 0.02 | 0.02 | 80 | 1014.3 |
| 20260901155711 | 86 | 210 | 2.0 | 8.0 | 0.00 | 0.02 | 0.02 | 78 | 1014.0 |
| 20260901155207 | 85 | 66 | 1.0 | 6.0 | 0.00 | 0.02 | 0.02 | 79 | 1013.9 |
| 20260901154701 | 85 | 203 | 5.0 | 7.0 | 0.00 | 0.02 | 0.02 | 78 | 1014.1 |
| 20260901154156 | 85 | 180 | 3.0 | 6.0 | 0.00 | 0.02 | 0.02 | 79 | 1014.1 |
| 20260901153652 | 84 | 270 | 2.0 | 6.0 | 0.00 | 0.02 | 0.02 | 79 | 1014.0 |
| 20260901153146 | 84 | 225 | 3.0 | 8.0 | 0.00 | 0.02 | 0.02 | 80 | 1013.9 |
| 20260901152640 | 84 | 203 | 4.0 | 6.0 | 0.00 | 0.02 | 0.02 | 80 | 1013.9 |
| 20260901152138 | 84 | 217 | 5.0 | 5.0 | 0.00 | 0.02 | 0.02 | 81 | 1013.9 |
| 20260901151635 | 84 | 203 | 1.0 | 8.0 | 0.00 | 0.02 | 0.02 | 80 | 1013.8 |
| 20260901151133 | 83 | 207 | 4.0 | 5.0 | 0.00 | 0.02 | 0.02 | 80 | 1013.9 |
| 20260901150633 | 83 | 201 | 4.0 | 6.0 | 0.00 | 0.02 | 0.02 | 80 | 1014.0 |
| 20260901150126 | 83 | 206 | 1.0 | 7.0 | 0.00 | 0.02 | 0.02 | 81 | 1013.8 |
| 20260901145624 | 83 | 225 | 3.0 | 5.0 | 0.00 | 0.02 | 0.02 | 81 | 1013.9 |
| 20260901145124 | 83 | 203 | 4.0 | 6.0 | 0.00 | 0.02 | 0.02 | 81 | 1013.9 |
| 20260901144620 | 83 | 198 | 0.0 | 6.0 | 0.00 | 0.02 | 0.02 | 82 | 1013.9 |
| 20260901144115 | 83 | 205 | 4.0 | 5.0 | 0.00 | 0.02 | 0.02 | 82 | 1013.6 |
| 20260901143610 | 83 | 200 | 4.0 | 5.0 | 0.00 | 0.02 | 0.02 | 82 | 1013.8 |
| 20260901143106 | 82 | 215 | 0.0 | 7.0 | 0.00 | 0.02 | 0.02 | 82 | 1013.7 |
| 20260901142602 | 82 | 195 | 3.0 | 3.0 | 0.00 | 0.02 | 0.02 | 84 | 1013.9 |
| 20260901142101 | 81 | 207 | 4.0 | 5.0 | 0.00 | 0.02 | 0.02 | 83 | 1013.6 |
| 20260901141556 | 81 | 203 | 4.0 | 5.0 | 0.00 | 0.02 | 0.02 | 84 | 1013.7 |
| 20260901141051 | 81 | 206 | 3.0 | 5.0 | 0.00 | 0.02 | 0.02 | 85 | 1014.1 |
| 20260901140549 | 80 | 196 | 3.0 | 5.0 | 0.00 | 0.02 | 0.02 | 86 | 1013.9 |
| 20260901140044 | 80 | 194 | 3.0 | 5.0 | 0.00 | 0.02 | 0.02 | 85 | 1013.8 |
| 20260901135543 | 80 | 199 | 4.0 | 5.0 | 0.00 | 0.02 | 0.02 | 84 | 1013.9 |
| 20260901135039 | 80 | 214 | 3.0 | 4.0 | 0.00 | 0.02 | 0.02 | 84 | 1013.9 |
| 20260901134535 | 79 | 265 | 0.0 | 4.0 | 0.00 | 0.02 | 0.02 | 86 | 1013.8 |
| 20260901134035 | 79 | 195 | 3.0 | 5.0 | 0.00 | 0.02 | 0.02 | 86 | 1013.8 |
| 20260901133534 | 79 | 200 | 0.0 | 6.0 | 0.00 | 0.02 | 0.02 | 86 | 1013.9 |
| 20260901133032 | 78 | 189 | 0.0 | 4.0 | 0.00 | 0.02 | 0.02 | 87 | 1014.0 |
| 20260901132527 | 78 | 209 | 3.0 | 3.0 | 0.00 | 0.02 | 0.02 | 88 | 1013.8 |
| 20260901132027 | 78 | 194 | 3.0 | 4.0 | 0.00 | 0.02 | 0.02 | 87 | 1014.2 |
| 20260901131527 | 78 | 275 | 0.0 | 6.0 | 0.00 | 0.02 | 0.02 | 87 | 1014.2 |
| 20260901131023 | 78 | 185 | 3.0 | 6.0 | 0.00 | 0.02 | 0.02 | 87 | 1014.2 |
| 20260901130522 | 78 | 184 | 2.0 | 3.0 | 0.00 | 0.02 | 0.02 | 88 | 1014.0 |
| 20260901130021 | 78 | 202 | 2.0 | 3.0 | 0.00 | 0.02 | 0.02 | 89 | 1014.0 |
| 20260901125519 | 77 | 201 | 2.0 | 3.0 | 0.00 | 0.02 | 0.02 | 90 | 1014.2 |
| 20260901125015 | 76 | 199 | 2.0 | 4.0 | 0.00 | 0.02 | 0.02 | 90 | 1013.8 |
| 20260901124510 | 76 | 196 | 3.0 | 4.0 | 0.00 | 0.02 | 0.02 | 91 | 1014.0 |
| 20260901124009 | 75 | 212 | 2.0 | 3.0 | 0.00 | 0.02 | 0.02 | 91 | 1014.2 |
| 20260901123504 | 75 | 204 | 2.0 | 3.0 | 0.00 | 0.02 | 0.02 | 91 | 1014.0 |
| 20260901123002 | 75 | 204 | 2.0 | 4.0 | 0.00 | 0.02 | 0.02 | 92 | 1013.9 |
| 20260901122457 | 75 | 198 | 1.0 | 4.0 | 0.00 | 0.02 | 0.02 | 93 | 1013.7 |
| 20260901121956 | 74 | 194 | 1.0 | 3.0 | 0.00 | 0.02 | 0.02 | 94 | 1013.9 |
| 20260901121451 | 74 | 204 | 2.0 | 4.0 | 0.00 | 0.02 | 0.02 | 94 | 1013.7 |
| 20260901120941 | 74 | 204 | 2.0 | 3.0 | 0.00 | 0.02 | 0.02 | 94 | 1013.6 |
| 20260901120441 | 74 | 203 | 1.0 | 3.0 | 0.00 | 0.02 | 0.02 | 94 | 1013.5 |
| 20260901115936 | 74 | 202 | 2.0 | 3.0 | 0.00 | 0.02 | 0.02 | 94 | 1013.6 |
| 20260901115431 | 74 | 201 | 2.0 | 4.0 | 0.00 | 0.02 | 0.02 | 94 | 1013.7 |
| 20260901114929 | 74 | 198 | 3.0 | 4.0 | 0.00 | 0.02 | 0.02 | 94 | 1013.5 |
| 20260901114424 | 74 | 206 | 0.0 | 4.0 | 0.00 | 0.02 | 0.02 | 94 | 1013.5 |
| 20260901113922 | 74 | 204 | 2.0 | 3.0 | 0.00 | 0.02 | 0.02 | 94 | 1013.5 |
| 20260901113421 | 74 | 200 | 1.0 | 3.0 | 0.00 | 0.02 | 0.02 | 93 | 1013.3 |
| 20260901112917 | 74 | 180 | 0.0 | 4.0 | 0.00 | 0.02 | 0.02 | 93 | 1013.6 |
| 20260901112411 | 75 | 206 | 2.0 | 3.0 | 0.00 | 0.02 | 0.02 | 93 | 1013.3 |
| 20260901111906 | 75 | 210 | 2.0 | 4.0 | 0.00 | 0.02 | 0.02 | 92 | 1013.4 |
| 20260901111404 | 75 | 208 | 2.0 | 3.0 | 0.00 | 0.02 | 0.02 | 93 | 1013.2 |
| 20260901110903 | 75 | 197 | 2.0 | 4.0 | 0.00 | 0.02 | 0.02 | 93 | 1013.1 |
| 20260901110359 | 75 | 203 | 2.0 | 3.0 | 0.00 | 0.02 | 0.02 | 93 | 1013.2 |
| 20260901105855 | 75 | 199 | 0.0 | 3.0 | 0.00 | 0.02 | 0.02 | 93 | 1013.0 |
| 20260901105350 | 75 | 202 | 2.0 | 3.0 | 0.00 | 0.02 | 0.02 | 93 | 1012.9 |
| 20260901104846 | 75 | 255 | 1.0 | 3.0 | 0.00 | 0.02 | 0.02 | 93 | 1012.9 |
| 20260901104341 | 75 | 203 | 2.0 | 3.0 | 0.00 | 0.02 | 0.02 | 93 | 1013.0 |
| 20260901103836 | 75 | 192 | 2.0 | 3.0 | 0.00 | 0.02 | 0.02 | 94 | 1012.7 |
| 20260901103330 | 74 | 206 | 2.0 | 3.0 | 0.00 | 0.02 | 0.02 | 94 | 1013.0 |
| 20260901102826 | 75 | 180 | 1.0 | 2.0 | 0.00 | 0.02 | 0.02 | 95 | 1013.1 |
| 20260901102320 | 75 | 186 | 1.0 | 2.0 | 0.00 | 0.02 | 0.02 | 94 | 1013.1 |
| 20260901101816 | 75 | 209 | 0.0 | 2.0 | 0.00 | 0.02 | 0.02 | 93 | 1013.2 |
| 20260901101315 | 75 | 190 | 0.0 | 2.0 | 0.00 | 0.02 | 0.02 | 93 | 1013.0 |
| 20260901100815 | 75 | 203 | 0.0 | 2.0 | 0.02 | 0.02 | 0.02 | 93 | 1013.1 |
| 20260901100310 | 75 | 98 | 0.0 | 0.0 | 0.02 | 0.02 | 0.02 | 92 | 1013.1 |
| 20260901095808 | 75 | 209 | 1.0 | 2.0 | 0.00 | 0.02 | 0.02 | 92 | 1013.1 |
| 20260901095306 | 75 | 192 | 1.0 | 3.0 | 0.00 | 0.02 | 0.02 | 92 | 1012.9 |
| 20260901094800 | 75 | 200 | 1.0 | 3.0 | 0.00 | 0.02 | 0.02 | 92 | 1012.6 |
| 20260901094255 | 75 | 206 | 2.0 | 3.0 | 0.00 | 0.02 | 0.02 | 92 | 1012.9 |
| 20260901093750 | 75 | 194 | 1.0 | 2.0 | 0.00 | 0.02 | 0.02 | 92 | 1012.7 |
| 20260901093249 | 75 | 195 | 2.0 | 3.0 | 0.00 | 0.02 | 0.02 | 92 | 1012.8 |
| 20260901092745 | 75 | 198 | 1.0 | 2.0 | 0.00 | 0.02 | 0.02 | 92 | 1012.7 |
| 20260901092240 | 75 | 203 | 0.0 | 3.0 | 0.00 | 0.02 | 0.02 | 93 | 1012.8 |
| 20260901091731 | 75 | 212 | 3.0 | 5.0 | 0.00 | 0.02 | 0.02 | 93 | 1012.4 |
| 20260901091226 | 75 | 208 | 2.0 | 3.0 | 0.00 | 0.02 | 0.02 | 93 | 1012.7 |
| 20260901090721 | 75 | 200 | 1.0 | 4.0 | 0.00 | 0.02 | 0.02 | 93 | 1012.7 |
| 20260901090216 | 75 | 201 | 0.0 | 3.0 | 0.00 | 0.02 | 0.02 | 93 | 1012.5 |
| 20260901085712 | 75 | 210 | 2.0 | 3.0 | 0.00 | 0.02 | 0.02 | 93 | 1012.4 |
| 20260901085207 | 75 | 192 | 0.0 | 3.0 | 0.00 | 0.02 | 0.02 | 93 | 1012.8 |
| 20260901084704 | 75 | 209 | 1.0 | 4.0 | 0.00 | 0.02 | 0.02 | 93 | 1012.6 |
| 20260901084200 | 75 | 202 | 2.0 | 4.0 | 0.00 | 0.02 | 0.02 | 93 | 1012.8 |
| 20260901083659 | 75 | 202 | 2.0 | 5.0 | 0.00 | 0.02 | 0.02 | 93 | 1012.7 |
| 20260901083158 | 75 | 213 | 2.0 | 6.0 | 0.02 | 0.02 | 0.02 | 93 | 1012.9 |
| 20260901082652 | 75 | 206 | 3.0 | 7.0 | 0.09 | 0.02 | 0.02 | 93 | 1012.6 |
| 20260901082148 | 76 | 204 | 0.0 | 5.0 | 0.05 | 0.01 | 0.01 | 91 | 1012.6 |
| 20260901081643 | 77 | 187 | 0.0 | 4.0 | 0.00 | 0.00 | 0.00 | 88 | 1012.8 |
| 20260901081142 | 77 | 200 | 5.0 | 5.0 | 0.00 | 0.00 | 0.00 | 87 | 1012.7 |
| 20260901080637 | 77 | 199 | 2.0 | 4.0 | 0.00 | 0.00 | 0.00 | 87 | 1012.8 |
| 20260901080136 | 77 | 187 | 0.0 | 3.0 | 0.00 | 0.00 | 0.00 | 87 | 1012.7 |
| 20260901075631 | 77 | 201 | 3.0 | 3.0 | 0.00 | 0.00 | 0.00 | 87 | 1012.5 |
| 20260901075131 | 77 | 194 | 3.0 | 4.0 | 0.00 | 0.00 | 0.00 | 87 | 1012.6 |
| 20260901074630 | 77 | 186 | 0.0 | 3.0 | 0.00 | 0.00 | 0.00 | 87 | 1012.6 |
| 20260901074126 | 77 | 202 | 3.0 | 5.0 | 0.00 | 0.00 | 0.00 | 87 | 1012.6 |
| 20260901073622 | 77 | 189 | 2.0 | 4.0 | 0.00 | 0.00 | 0.00 | 87 | 1012.6 |
| 20260901073117 | 77 | 192 | 0.0 | 2.0 | 0.00 | 0.00 | 0.00 | 87 | 1012.8 |
| 20260901072613 | 77 | 194 | 0.0 | 2.0 | 0.00 | 0.00 | 0.00 | 87 | 1012.6 |
| 20260901072107 | 76 | 194 | 0.0 | 3.0 | 0.00 | 0.00 | 0.00 | 88 | 1012.6 |
| 20260901071602 | 76 | 203 | 0.0 | 2.0 | 0.00 | 0.00 | 0.00 | 88 | 1012.6 |
| 20260901071101 | 77 | 195 | 0.0 | 2.0 | 0.00 | 0.00 | 0.00 | 88 | 1012.7 |
| 20260901070555 | 77 | 189 | 4.0 | 4.0 | 0.00 | 0.00 | 0.00 | 88 | 1012.5 |
| 20260901070051 | 76 | 195 | 1.0 | 3.0 | 0.00 | 0.00 | 0.00 | 88 | 1012.5 |
| 20260901065545 | 77 | 189 | 2.0 | 2.0 | 0.00 | 0.00 | 0.00 | 88 | 1012.5 |
| 20260901065039 | 77 | 192 | 0.0 | 3.0 | 0.00 | 0.00 | 0.00 | 88 | 1012.5 |
| 20260901064537 | 76 | 194 | 2.0 | 4.0 | 0.00 | 0.00 | 0.00 | 88 | 1012.4 |
| 20260901064033 | 77 | 194 | 1.0 | 3.0 | 0.00 | 0.00 | 0.00 | 88 | 1012.2 |
| 20260901063529 | 77 | 204 | 2.0 | 3.0 | 0.00 | 0.00 | 0.00 | 88 | 1012.3 |
| 20260901063025 | 77 | 206 | 0.0 | 4.0 | 0.00 | 0.00 | 0.00 | 88 | 1012.5 |
| 20260901062520 | 77 | 203 | 2.0 | 4.0 | 0.00 | 0.00 | 0.00 | 88 | 1012.4 |
| 20260901062016 | 77 | 180 | 2.0 | 4.0 | 0.00 | 0.00 | 0.00 | 88 | 1012.3 |
| 20260901061513 | 77 | 190 | 3.0 | 4.0 | 0.00 | 0.00 | 0.00 | 88 | 1012.3 |
| 20260901061007 | 77 | 204 | 2.0 | 5.0 | 0.00 | 0.00 | 0.00 | 88 | 1012.2 |
| 20260901060501 | 77 | 201 | 3.0 | 4.0 | 0.00 | 0.00 | 0.00 | 88 | 1012.3 |
| 20260901055955 | 77 | 188 | 4.0 | 5.0 | 0.00 | 0.00 | 0.00 | 88 | 1012.4 |
| 20260901055452 | 77 | 203 | 1.0 | 4.0 | 0.00 | 0.00 | 0.00 | 87 | 1012.5 |
| 20260901054949 | 78 | 198 | 0.0 | 5.0 | 0.00 | 0.00 | 0.00 | 87 | 1012.2 |
| 20260901054446 | 78 | 194 | 2.0 | 5.0 | 0.00 | 0.00 | 0.00 | 87 | 1012.6 |
| 20260901053941 | 78 | 205 | 3.0 | 4.0 | 0.00 | 0.00 | 0.00 | 87 | 1012.6 |
| 20260901053436 | 78 | 197 | 0.0 | 4.0 | 0.00 | 0.00 | 0.00 | 86 | 1012.5 |
| 20260901052931 | 78 | 209 | 2.0 | 6.0 | 0.00 | 0.00 | 0.00 | 86 | 1012.3 |
| 20260901052426 | 78 | 195 | 3.0 | 5.0 | 0.00 | 0.00 | 0.00 | 86 | 1012.5 |
| 20260901051926 | 78 | 198 | 0.0 | 4.0 | 0.00 | 0.00 | 0.00 | 86 | 1012.4 |
| 20260901051421 | 78 | 233 | 2.0 | 5.0 | 0.00 | 0.00 | 0.00 | 86 | 1012.5 |
| 20260901050915 | 78 | 194 | 5.0 | 5.0 | 0.00 | 0.00 | 0.00 | 86 | 1012.5 |
| 20260901050412 | 79 | 191 | 2.0 | 5.0 | 0.00 | 0.00 | 0.00 | 86 | 1012.8 |
| 20260901045911 | 79 | 209 | 1.0 | 4.0 | 0.00 | 0.04 | 0.04 | 86 | 1012.5 |
| 20260901045406 | 79 | 201 | 0.0 | 4.0 | 0.00 | 0.04 | 0.04 | 85 | 1012.5 |
| 20260901044901 | 79 | 209 | 3.0 | 5.0 | 0.00 | 0.04 | 0.04 | 85 | 1012.5 |
| 20260901044357 | 79 | 206 | 2.0 | 5.0 | 0.00 | 0.04 | 0.04 | 85 | 1012.6 |
| 20260901043852 | 79 | 201 | 0.0 | 4.0 | 0.00 | 0.04 | 0.04 | 85 | 1012.5 |
| 20260901043348 | 80 | 203 | 3.0 | 5.0 | 0.00 | 0.04 | 0.04 | 84 | 1012.7 |
| 20260901042843 | 80 | 202 | 3.0 | 5.0 | 0.00 | 0.04 | 0.04 | 83 | 1012.7 |
| 20260901042337 | 80 | 209 | 3.0 | 4.0 | 0.00 | 0.04 | 0.04 | 83 | 1012.6 |
| 20260901041832 | 81 | 202 | 3.0 | 5.0 | 0.00 | 0.04 | 0.04 | 82 | 1012.5 |
| 20260901041327 | 81 | 190 | 3.0 | 5.0 | 0.00 | 0.04 | 0.04 | 81 | 1012.7 |
| 20260901040822 | 81 | 202 | 4.0 | 6.0 | 0.00 | 0.04 | 0.04 | 81 | 1012.7 |
| 20260901040321 | 81 | 200 | 3.0 | 3.0 | 0.00 | 0.04 | 0.04 | 81 | 1012.5 |
| 20260901035820 | 82 | 190 | 2.0 | 8.0 | 0.00 | 0.04 | 0.04 | 80 | 1012.5 |
| 20260901035320 | 82 | 195 | 3.0 | 6.0 | 0.00 | 0.04 | 0.04 | 80 | 1012.4 |
| 20260901034818 | 82 | 199 | 3.0 | 5.0 | 0.00 | 0.04 | 0.04 | 80 | 1012.3 |
| 20260901034314 | 81 | 208 | 5.0 | 9.0 | 0.00 | 0.04 | 0.04 | 81 | 1012.6 |
| 20260901033808 | 81 | 196 | 0.0 | 3.0 | 0.00 | 0.04 | 0.04 | 83 | 1012.5 |
| 20260901033307 | 81 | 195 | 2.0 | 3.0 | 0.00 | 0.04 | 0.04 | 82 | 1012.8 |
| 20260901032806 | 81 | 198 | 0.0 | 2.0 | 0.00 | 0.04 | 0.04 | 83 | 1012.6 |
| 20260901032306 | 81 | 195 | 0.0 | 3.0 | 0.00 | 0.04 | 0.04 | 83 | 1012.5 |
| 20260901031801 | 81 | 81 | 0.0 | 4.0 | 0.00 | 0.04 | 0.04 | 83 | 1012.6 |
| 20260901031257 | 81 | 187 | 2.0 | 4.0 | 0.00 | 0.04 | 0.04 | 83 | 1012.5 |
| 20260901030756 | 82 | 215 | 0.0 | 4.0 | 0.00 | 0.04 | 0.04 | 83 | 1012.6 |
| 20260901030257 | 81 | 200 | 3.0 | 5.0 | 0.00 | 0.04 | 0.04 | 83 | 1012.7 |
| 20260901025751 | 81 | 194 | 0.0 | 4.0 | 0.00 | 0.04 | 0.04 | 84 | 1012.4 |
| 20260901025246 | 82 | 204 | 2.0 | 5.0 | 0.00 | 0.04 | 0.04 | 84 | 1012.5 |
| 20260901024741 | 81 | 246 | 2.0 | 4.0 | 0.00 | 0.04 | 0.04 | 85 | 1012.4 |
| 20260901024239 | 81 | 111 | 0.0 | 4.0 | 0.00 | 0.04 | 0.04 | 85 | 1012.6 |
| 20260901023737 | 81 | 195 | 0.0 | 3.0 | 0.00 | 0.04 | 0.04 | 86 | 1012.8 |
| 20260901023233 | 81 | 209 | 1.0 | 2.0 | 0.00 | 0.04 | 0.04 | 86 | 1012.7 |
| 20260901022728 | 82 | 201 | 0.0 | 5.0 | 0.00 | 0.04 | 0.04 | 85 | 1012.8 |
| 20260901022224 | 81 | 234 | 1.0 | 3.0 | 0.00 | 0.04 | 0.04 | 85 | 1012.5 |
| 20260901021719 | 81 | 215 | 1.0 | 2.0 | 0.00 | 0.04 | 0.04 | 86 | 1012.7 |
| 20260901021214 | 81 | 203 | 0.0 | 3.0 | 0.00 | 0.04 | 0.04 | 86 | 1012.7 |
| 20260901020704 | 82 | 204 | 2.0 | 2.0 | 0.00 | 0.04 | 0.04 | 86 | 1012.8 |
| 20260901020159 | 82 | 195 | 0.0 | 3.0 | 0.00 | 0.04 | 0.04 | 85 | 1012.7 |
| 20260901015654 | 82 | 203 | 3.0 | 3.0 | 0.00 | 0.04 | 0.04 | 85 | 1012.7 |
| 20260901015154 | 82 | 29 | 1.0 | 3.0 | 0.00 | 0.04 | 0.04 | 85 | 1012.5 |
| 20260901014649 | 82 | 209 | 0.0 | 2.0 | 0.00 | 0.04 | 0.04 | 85 | 1012.7 |
| 20260901014145 | 82 | 201 | 0.0 | 2.0 | 0.00 | 0.04 | 0.04 | 84 | 1012.5 |
| 20260901013640 | 83 | 105 | 0.0 | 3.0 | 0.00 | 0.04 | 0.04 | 83 | 1012.4 |
| 20260901013136 | 82 | 90 | 0.0 | 3.0 | 0.00 | 0.04 | 0.04 | 84 | 1012.6 |
| 20260901012631 | 82 | 212 | 2.0 | 3.0 | 0.00 | 0.04 | 0.04 | 85 | 1012.4 |
| 20260901012126 | 82 | 254 | 0.0 | 3.0 | 0.00 | 0.04 | 0.04 | 86 | 1012.4 |
| 20260901011622 | 82 | 206 | 0.0 | 3.0 | 0.00 | 0.04 | 0.04 | 85 | 1012.4 |
| 20260901011120 | 83 | 200 | 1.0 | 3.0 | 0.00 | 0.04 | 0.04 | 85 | 1012.2 |
| 20260901010616 | 83 | 220 | 0.0 | 0.0 | 0.00 | 0.04 | 0.04 | 84 | 1012.4 |
| 20260901010115 | 83 | 206 | 2.0 | 4.0 | 0.00 | 0.04 | 0.04 | 84 | 1012.2 |
| 20260901005615 | 83 | 206 | 0.0 | 4.0 | 0.00 | 0.04 | 0.04 | 84 | 1011.9 |
| 20260901005110 | 83 | 194 | 0.0 | 5.0 | 0.00 | 0.04 | 0.04 | 85 | 1012.1 |
| 20260901004609 | 83 | 192 | 0.0 | 4.0 | 0.00 | 0.04 | 0.04 | 85 | 1012.1 |
| 20260901004104 | 83 | 198 | 3.0 | 4.0 | 0.00 | 0.04 | 0.04 | 85 | 1012.0 |
| 20260901003559 | 83 | 203 | 3.0 | 4.0 | 0.00 | 0.04 | 0.04 | 85 | 1012.2 |
| 20260901003057 | 84 | 210 | 2.0 | 3.0 | 0.00 | 0.04 | 0.04 | 85 | 1012.1 |
| 20260901002552 | 84 | 204 | 2.0 | 4.0 | 0.00 | 0.04 | 0.04 | 84 | 1012.2 |
| 20260901002047 | 84 | 278 | 0.0 | 1.0 | 0.00 | 0.04 | 0.04 | 83 | 1012.1 |
| 20260901001542 | 84 | 246 | 0.0 | 1.0 | 0.00 | 0.04 | 0.04 | 82 | 1012.2 |
| 20260901001037 | 85 | 254 | 0.0 | 2.0 | 0.02 | 0.04 | 0.04 | 81 | 1011.9 |
| 20260901000532 | 85 | 198 | 3.0 | 3.0 | 0.02 | 0.04 | 0.04 | 80 | 1012.0 |
| 20260901000028 | 86 | 70 | 2.0 | 3.0 | 0.00 | 0.04 | 0.04 | 77 | 1011.9 |
| 20260831235521 | 87 | 115 | 0.0 | 5.0 | 0.00 | 0.04 | 0.04 | 75 | 1011.9 |
| 20260831235017 | 87 | 199 | 3.0 | 3.0 | 0.00 | 0.04 | 0.04 | 75 | 1012.3 |
| 20260831234511 | 87 | 331 | 0.0 | 0.0 | 0.00 | 0.04 | 0.04 | 75 | 1012.7 |
| 20260831234007 | 88 | 331 | 0.0 | 1.0 | 0.00 | 0.04 | 0.04 | 74 | 1012.8 |
| 20260831233501 | 88 | 0 | 0.0 | 1.0 | 0.00 | 0.04 | 0.04 | 73 | 1012.8 |
| 20260831232957 | 88 | 261 | 0.0 | 2.0 | 0.00 | 0.04 | 0.04 | 72 | 1012.3 |
| 20260831232452 | 88 | 188 | 2.0 | 3.0 | 0.00 | 0.04 | 0.04 | 71 | 1012.2 |
| 20260831231948 | 88 | 195 | 0.0 | 2.0 | 0.00 | 0.04 | 0.04 | 72 | 1012.0 |
| 20260831231444 | 89 | 197 | 2.0 | 3.0 | 0.00 | 0.04 | 0.04 | 72 | 1012.2 |
| 20260831230940 | 89 | 194 | 0.0 | 3.0 | 0.00 | 0.04 | 0.04 | 72 | 1012.0 |
| 20260831230435 | 89 | 198 | 2.0 | 4.0 | 0.00 | 0.04 | 0.04 | 72 | 1012.0 |
| 20260831225928 | 89 | 186 | 0.0 | 3.0 | 0.00 | 0.04 | 0.04 | 72 | 1011.7 |
| 20260831225425 | 90 | 192 | 0.0 | 2.0 | 0.00 | 0.04 | 0.04 | 71 | 1011.6 |
| 20260831224920 | 89 | 199 | 2.0 | 3.0 | 0.00 | 0.04 | 0.04 | 70 | 1011.7 |
| 20260831224419 | 89 | 204 | 2.0 | 3.0 | 0.00 | 0.04 | 0.04 | 70 | 1011.8 |
| 20260831223914 | 90 | 206 | 1.0 | 3.0 | 0.00 | 0.04 | 0.04 | 69 | 1011.9 |
| 20260831223410 | 91 | 206 | 3.0 | 9.0 | 0.00 | 0.04 | 0.04 | 68 | 1011.7 |
| 20260831222907 | 91 | 194 | 3.0 | 4.0 | 0.00 | 0.04 | 0.04 | 67 | 1011.6 |
| 20260831222402 | 93 | 194 | 4.0 | 4.0 | 0.00 | 0.04 | 0.04 | 66 | 1011.6 |
| 20260831221857 | 94 | 189 | 2.0 | 4.0 | 0.00 | 0.04 | 0.04 | 65 | 1011.4 |
| 20260831221352 | 94 | 190 | 0.0 | 4.0 | 0.00 | 0.04 | 0.04 | 64 | 1011.6 |
| 20260831220848 | 94 | 197 | 2.0 | 5.0 | 0.00 | 0.04 | 0.04 | 65 | 1011.4 |
| 20260831220343 | 94 | 216 | 2.0 | 5.0 | 0.00 | 0.04 | 0.04 | 64 | 1011.6 |
| 20260831215838 | 95 | 209 | 0.0 | 4.0 | 0.00 | 0.04 | 0.04 | 63 | 1011.5 |
| 20260831215334 | 95 | 198 | 2.0 | 3.0 | 0.00 | 0.04 | 0.04 | 61 | 1011.5 |
| 20260831214830 | 95 | 261 | 3.0 | 6.0 | 0.00 | 0.04 | 0.04 | 60 | 1011.8 |
| 20260831214327 | 94 | 190 | 3.0 | 7.0 | 0.00 | 0.04 | 0.04 | 61 | 1011.7 |
| 20260831213822 | 95 | 186 | 1.0 | 3.0 | 0.00 | 0.04 | 0.04 | 60 | 1011.6 |
| 20260831213319 | 94 | 164 | 2.0 | 8.0 | 0.00 | 0.04 | 0.04 | 60 | 1011.5 |
| 20260831212814 | 95 | 254 | 2.0 | 8.0 | 0.00 | 0.04 | 0.04 | 60 | 1011.6 |
| 20260831212311 | 95 | 188 | 3.0 | 7.0 | 0.00 | 0.04 | 0.04 | 60 | 1011.8 |
| 20260831211809 | 95 | 211 | 0.0 | 6.0 | 0.00 | 0.04 | 0.04 | 59 | 1011.7 |
| 20260831211305 | 96 | 180 | 2.0 | 7.0 | 0.00 | 0.04 | 0.04 | 58 | 1011.6 |
| 20260831210804 | 96 | 189 | 5.0 | 6.0 | 0.00 | 0.04 | 0.04 | 58 | 1011.7 |
| 20260831210300 | 96 | 214 | 0.0 | 3.0 | 0.00 | 0.04 | 0.04 | 58 | 1011.7 |
| 20260831205800 | 96 | 103 | 0.0 | 6.0 | 0.00 | 0.04 | 0.04 | 58 | 1011.6 |
| 20260831205256 | 95 | 90 | 1.0 | 8.0 | 0.00 | 0.04 | 0.04 | 59 | 1011.8 |
| 20260831204755 | 95 | 4 | 0.0 | 5.0 | 0.00 | 0.04 | 0.04 | 58 | 1011.8 |
| 20260831204255 | 95 | 334 | 1.0 | 7.0 | 0.00 | 0.04 | 0.04 | 58 | 1011.7 |